WD4CLZ Weather Reports


time (UTC)temp
C
wind
direction
speed
KPH
gust
KPH
rain 1hr
cm
rain 24hr
cm
rain mn
cm
humidity
%
barometer
mb
20200531081335 25 87 0.0 0.0 0.00 0.00 0.00 81 1013.8
20200531080340 25 87 0.0 0.0 0.00 0.00 0.00 81 1013.9
20200531075329 25 87 0.0 0.0 0.00 0.00 0.00 81 1013.9
20200531074334 25 87 0.0 0.0 0.00 0.00 0.00 81 1013.9
20200531073340 25 87 0.0 0.0 0.00 0.00 0.00 81 1013.9
20200531072346 25 87 0.0 0.0 0.00 0.00 0.00 81 1014.0
20200531071334 25 87 0.0 0.0 0.00 0.00 0.00 81 1014.1
20200531070338 25 87 0.0 0.0 0.00 0.00 0.00 81 1014.3
20200531065342 25 87 0.0 0.0 0.00 0.00 0.00 80 1014.4
20200531064346 25 87 0.0 0.0 0.00 0.00 0.00 81 1014.5
20200531063335 25 87 0.0 0.0 0.00 0.00 0.00 80 1014.6
20200531062343 26 87 0.0 0.0 0.00 0.00 0.00 80 1014.6
20200531061327 26 87 0.0 0.0 0.00 0.00 0.00 80 1014.7
20200531060332 26 87 0.0 0.0 0.00 0.00 0.00 79 1014.8
20200531055339 26 87 0.0 0.0 0.00 0.00 0.00 79 1015.0
20200531054344 26 87 0.0 0.0 0.00 0.00 0.00 78 1014.9
20200531053328 26 87 0.0 0.0 0.00 0.00 0.00 78 1015.1
20200531052335 26 87 0.0 0.0 0.00 0.00 0.00 78 1015.2
20200531051343 26 87 0.0 0.0 0.00 0.00 0.00 77 1015.4
20200531050347 26 87 0.0 0.0 0.00 0.00 0.00 77 1015.5
20200531045331 26 87 0.0 0.0 0.00 0.00 0.00 77 1015.6
20200531044335 26 87 0.0 0.0 0.00 0.00 0.00 77 1015.6
20200531043344 27 87 0.0 0.0 0.00 0.00 0.00 77 1015.6
20200531042329 27 87 0.0 0.0 0.00 0.00 0.00 77 1015.6
20200531041334 27 87 0.0 0.0 0.00 0.00 0.00 76 1015.7
20200531040340 27 87 0.0 0.0 0.00 0.00 0.00 76 1015.8
20200531035329 27 87 0.0 0.0 0.00 0.00 0.00 76 1015.8
20200531034333 27 87 0.0 0.0 0.00 0.00 0.00 76 1015.9
20200531033338 27 87 0.0 0.0 0.00 0.00 0.00 76 1016.1
20200531032343 27 87 0.0 0.0 0.00 0.00 0.00 76 1016.0
20200531031331 27 87 0.0 0.0 0.00 0.00 0.00 75 1016.1
20200531030336 27 87 0.0 0.0 0.00 0.00 0.00 75 1016.0
20200531025341 27 87 0.0 0.0 0.00 0.00 0.00 75 1016.0
20200531024328 27 87 0.0 0.0 0.00 0.00 0.00 74 1015.9
20200531023333 27 87 0.0 0.0 0.00 0.00 0.00 75 1015.8
20200531022338 27 87 0.0 0.0 0.00 0.00 0.00 75 1015.8
20200531021342 27 87 0.0 0.0 0.00 0.00 0.00 76 1015.9
20200531020332 27 87 0.0 0.0 0.00 0.00 0.00 76 1015.7
20200531015336 27 87 0.0 0.0 0.00 0.00 0.00 76 1015.5
20200531014340 27 107 0.0 0.0 0.00 0.00 0.00 76 1015.4
20200531013345 27 114 0.0 0.0 0.00 0.00 0.00 76 1015.1
20200531012333 27 114 0.0 0.0 0.00 0.00 0.00 76 1015.1
20200531011337 27 114 0.0 0.0 0.00 0.00 0.00 75 1015.1
20200531010341 28 118 0.0 0.0 0.00 0.00 0.00 75 1015.0
20200531005345 28 117 0.0 0.0 0.00 0.00 0.00 75 1014.7
20200531004333 28 117 0.0 0.0 0.00 0.00 0.00 75 1014.7
20200531003337 28 113 0.0 0.0 0.00 0.00 0.00 74 1014.7
20200531002342 28 40 0.0 0.0 0.00 0.00 0.00 74 1014.6
20200531001328 28 40 0.0 0.0 0.00 0.00 0.00 74 1014.2
20200531000336 28 76 0.0 0.0 0.00 0.00 0.00 74 1014.0
20200530235339 28 76 0.0 0.0 0.00 0.00 0.00 73 1013.9
20200530234342 28 42 0.0 0.0 0.00 0.00 0.00 71 1013.8
20200530233347 28 41 0.0 0.0 0.00 0.00 0.00 70 1013.8
20200530232336 28 35 0.0 0.0 0.00 0.00 0.00 72 1013.7
20200530231341 28 41 0.0 0.0 0.00 0.00 0.00 73 1013.5
20200530230344 28 113 0.0 0.0 0.00 0.00 0.00 73 1013.4
20200530225329 28 102 0.0 0.0 0.00 0.00 0.00 71 1013.4
20200530224337 28 146 0.0 0.0 0.00 0.00 0.00 68 1013.7
20200530223342 28 36 0.0 0.0 0.00 0.00 0.00 67 1013.8
20200530222346 29 36 0.0 0.0 0.00 0.00 0.00 67 1013.7
20200530221330 30 40 0.0 0.0 0.00 0.00 0.00 67 1013.6
20200530220339 30 51 0.0 8.0 0.00 0.00 0.00 68 1013.7
20200530215344 30 42 0.0 0.0 0.00 0.00 0.00 67 1013.5
20200530214346 30 42 0.0 0.0 0.00 0.00 0.00 66 1013.6
20200530213330 30 42 0.0 0.0 0.00 0.00 0.00 68 1013.5
20200530212339 30 44 0.0 0.0 0.00 0.00 0.00 67 1013.5
20200530211343 30 42 0.0 0.0 0.00 0.00 0.00 66 1013.5
20200530210346 30 43 0.0 0.0 0.00 0.00 0.00 66 1013.4
20200530205345 30 33 0.0 1.6 0.00 0.00 0.00 66 1013.6
20200530204333 31 59 0.0 0.0 0.00 0.00 0.00 65 1013.7
20200530203337 31 74 0.0 3.2 0.00 0.00 0.00 64 1013.8
20200530202341 31 142 0.0 1.6 0.00 0.00 0.00 64 1013.9
20200530201345 31 43 0.0 0.0 0.00 0.00 0.00 62 1014.1
20200530200332 31 49 0.0 0.0 0.00 0.00 0.00 64 1014.2
20200530195336 31 94 0.0 17.7 0.00 0.00 0.00 61 1014.3
20200530194340 31 65 0.0 0.0 0.00 0.00 0.00 61 1014.4
20200530193344 31 84 0.0 0.0 0.00 0.00 0.00 62 1014.4
20200530192333 31 152 0.0 0.0 0.00 0.00 0.00 60 1014.5
20200530191337 31 68 0.0 0.0 0.00 0.00 0.00 62 1014.5
20200530190341 31 22 0.0 0.0 0.00 0.00 0.00 64 1014.6
20200530185345 31 138 0.0 1.6 0.00 0.00 0.00 65 1014.7
20200530184333 31 49 0.0 8.0 0.00 0.00 0.00 65 1014.9
20200530183338 31 44 0.0 0.0 0.00 0.00 0.00 65 1015.0
20200530182342 31 50 0.0 0.0 0.00 0.00 0.00 65 1015.0
20200530181345 31 30 0.0 1.6 0.00 0.00 0.00 62 1015.1
20200530180333 31 121 0.0 0.0 0.00 0.00 0.00 62 1015.1
20200530175337 31 81 0.0 0.0 0.00 0.00 0.00 64 1015.1
20200530174341 31 131 0.0 0.0 0.00 0.00 0.00 63 1015.3
20200530173345 31 171 0.0 0.0 0.00 0.00 0.00 63 1015.3
20200530172332 31 59 0.0 0.0 0.00 0.00 0.00 63 1015.5
20200530171336 31 99 0.0 0.0 0.00 0.00 0.00 65 1015.5
20200530170341 31 118 0.0 0.0 0.00 0.00 0.00 66 1015.5
20200530165344 30 17 0.0 0.0 0.00 0.00 0.00 67 1015.6
20200530164333 30 152 0.0 0.0 0.00 0.00 0.00 68 1015.7
20200530163336 30 35 0.0 0.0 0.00 0.00 0.00 69 1015.7
20200530162341 31 28 0.0 0.0 0.00 0.00 0.00 67 1015.7
20200530161344 30 103 0.0 0.0 0.00 0.00 0.00 68 1015.7
20200530160333 30 86 0.0 0.0 0.00 0.00 0.00 69 1015.8
20200530155337 30 113 0.0 0.0 0.00 0.00 0.00 69 1015.9
20200530154341 30 92 0.0 0.0 0.00 0.00 0.00 70 1015.9
20200530153345 31 19 0.0 0.0 0.00 0.00 0.00 69 1016.0
20200530152332 30 94 0.0 0.0 0.00 0.00 0.00 69 1016.0
20200530151336 30 29 0.0 0.0 0.00 0.00 0.00 69 1016.1
20200530150340 30 130 0.0 0.0 0.00 0.00 0.00 71 1016.1
20200530145345 30 56 0.0 0.0 0.00 0.00 0.00 69 1016.1
20200530144333 30 56 0.0 0.0 0.00 0.00 0.00 70 1016.1
20200530143337 30 69 0.0 0.0 0.00 0.00 0.00 67 1016.1
20200530142341 30 75 0.0 0.0 0.00 0.00 0.00 68 1016.1
20200530141345 30 118 0.0 0.0 0.00 0.00 0.00 70 1016.2
20200530140334 30 132 0.0 1.6 0.00 0.00 0.00 69 1016.2
20200530135337 30 83 0.0 0.0 0.00 0.00 0.00 70 1016.1
20200530134340 30 72 0.0 0.0 0.00 0.00 0.00 70 1016.1
20200530133344 29 104 0.0 0.0 0.00 0.00 0.00 72 1016.1
20200530132332 28 171 0.0 0.0 0.00 0.00 0.00 74 1016.1
20200530131336 28 97 0.0 0.0 0.00 0.00 0.00 73 1016.1
20200530130341 28 128 0.0 0.0 0.00 0.00 0.00 70 1016.1
20200530125344 29 99 0.0 0.0 0.00 0.00 0.00 71 1016.0
20200530124332 28 129 0.0 0.0 0.00 0.00 0.00 72 1016.0
20200530123337 28 101 0.0 0.0 0.00 0.00 0.00 73 1015.9
20200530122340 28 96 0.0 0.0 0.00 0.00 0.00 73 1015.9
20200530121344 28 111 0.0 0.0 0.00 0.00 0.00 74 1016.0
20200530120331 28 55 0.0 0.0 0.00 0.00 0.00 75 1015.8
20200530115335 28 55 0.0 0.0 0.00 0.00 0.00 76 1015.6
20200530114339 27 55 0.0 0.0 0.00 0.00 0.00 77 1015.6
20200530113343 27 55 0.0 0.0 0.00 0.00 0.00 77 1015.6
20200530112330 27 55 0.0 0.0 0.00 0.00 0.00 77 1015.3
20200530111334 27 55 0.0 0.0 0.00 0.00 0.00 78 1015.2
20200530110338 26 55 0.0 0.0 0.00 0.00 0.00 78 1015.4
20200530105342 26 55 0.0 0.0 0.00 0.00 0.00 78 1015.3
20200530104329 26 55 0.0 0.0 0.00 0.00 0.00 78 1015.2
20200530103333 26 55 0.0 0.0 0.00 0.00 0.00 78 1015.2
20200530102337 26 55 0.0 0.0 0.00 0.00 0.00 78 1015.1
20200530101340 26 55 0.0 0.0 0.00 0.00 0.00 78 1014.9
20200530100328 27 55 0.0 0.0 0.00 0.00 0.00 78 1014.8
20200530095333 27 55 0.0 0.0 0.00 0.00 0.00 77 1014.6
20200530094337 27 51 0.0 0.0 0.00 0.00 0.00 78 1014.6
20200530093341 27 51 0.0 0.0 0.00 0.00 0.00 78 1014.5
20200530092330 27 51 0.0 0.0 0.00 0.00 0.00 78 1014.7
20200530091333 27 51 0.0 0.0 0.00 0.00 0.00 78 1014.8
20200530090337 27 51 0.0 0.0 0.00 0.00 0.00 78 1014.8
20200530085340 27 51 0.0 0.0 0.00 0.00 0.00 79 1014.8
20200530084329 27 51 0.0 0.0 0.00 0.00 0.00 79 1015.0
20200530083333 27 51 0.0 0.0 0.00 0.00 0.00 79 1014.9
20200530082337 27 51 0.0 0.0 0.00 0.00 0.00 79 1015.0